User: anonymous   Login
Location: Charleston
(38.3500°N, 81.6330°W)
Time: 17:17:02
(UTC-05:00)
Language:

Cosmos 1812 Rocket - Orbit

View from above orbital plane
View from above orbital plane
View from above satellite
View from above satellite

Ground track
Ground track

The orbit data is extracted from the following two-line orbital elements,

1 17296U 87003B   16345.19196815  .00000105  00000-0  98094-5 0  9993
2 17296  82.5296 201.5903 0020365 121.4915 238.8293 14.83159311615102
Epoch (UTC): 10 December 2016 04:36:26
Eccentricity: 0.0020365
inclination: 82.5296°
perigee height: 605 km
apogee height: 633 km
right ascension of ascending node: 201.5903°
argument of perigee: 121.4915°
revolutions per day: 14.83159311
mean anomaly at epoch: 238.8293°
orbit number at epoch: 61510

The dashed part of the orbit path shows where the satellite is in the earth's shadow,  

DLR